エレーニン彗星

P/2011 NO1 ( Elenin )

English version
Home page
Updated on February 21, 2021

---------------------------------------------------------------------

・ プロフィール

発見日 2011年7月7日
発見光度 19.5等
発見者 L. Elenin (Lyubertsy, Russia) and I. Molotov (Moscow, Russia)

・ 写真集

・ 軌道要素

Epoch 2011 Feb. 8.0 TT = JDT 2455600.5                                          
T 2011 Jan. 20.18115 TT                                 Rudenko                 
q   1.2409526            (2000.0)            P               Q                  
n   0.07398018     Peri.  263.44281     -0.91031328     +0.33845130             
a   5.6198636      Node   296.11603     -0.18789157     -0.85083334             
e   0.7791846      Incl.   15.38957     -0.36881769     -0.40191213             
P  13.3                                                                         
From 62 observations 2011 June 12-Aug. 2, mean residual 1".2.                   

・ 星図

・ 光度変化

        m1 = 14.5 + 5 logΔ + 10.0 log r

---------------------------------------------------------------------

軌道要素はM.P.E.C. 2021-B143に掲載されたものです。
星図はステラナビゲータ Ver.8 (アストロアーツ) で作成したものです。
光度グラフはComet for Windowsで作成したものです。

---------------------------------------------------------------------

Copyright(C) Seiichi Yoshida (comet@aerith.net). All rights reserved.